Hourly Data Report for June 29, 2020

OTTAWA INTL A
ONTARIO
Current Station Operator: NAVCAN

45°19'00.000" N
75°40'00.000" W
114.90 m
6106001
71628
YOW

Download Data

Hourly Data (June 2020)
Hourly Data Report for June 29, 2020
TIME Temp Definition
°C
Dew Point Definition
°C
Rel Hum Definition
%
Wind Dir Definition
10's deg

Wind Spd Definition
km/h
Visibility Definition
km
Stn Press Definition
kPa
Hmdx Definition


Wind Chill Definition


Weather Definition


00:00 19.0 18.0 94 34 10 24.1 99.58     LegendNANA
01:00 17.5 17.1 97 4 4 24.1 99.58     Mainly Clear
02:00 17.6 17.3 98 32 6 24.1 99.63     LegendNANA
03:00 16.6 16.2 98 31 11 24.1 99.64     LegendNANA
04:00 16.9 15.7 93 34 14 24.1 99.75     Clear
05:00 16.9 15.5 92 3 11 24.1 99.84     LegendNANA
06:00 17.9 16.4 91 3 13 24.1 99.90     LegendNANA
07:00 19.4 17.1 86 5 13 24.1 99.98     Clear
08:00 20.9 18.2 85 7 5 24.1 99.99 27   LegendNANA
09:00 22.9 18.7 77 3 7 24.1 99.98 29   LegendNANA
10:00 24.2 18.7 71 5 18 24.1 100.02 31   Mostly Cloudy
11:00 25.0 18.8 68 6 9 24.1 99.99 32   LegendNANA
12:00 26.4 17.7 58 6 16 24.1 100.01 32   LegendNANA
13:00 27.4 16.7 52 3 21 24.1 99.99 32   Mainly Clear
14:00 25.1 16.8 60 6 27 12.9 100.04 30   Rain Showers
15:00 20.3 18.0 86 2 13 12.9 100.12 26   Thunderstorms,Rain Showers
16:00 24.0 18.6 72 5 18 24.1 100.13 30   Mostly Cloudy
17:00 25.1 18.0 64 6 21 24.1 100.13 31   LegendNANA
18:00 24.3 16.8 63 6 18 24.1 100.13 29   LegendNANA
19:00 22.9 17.8 73 6 6 24.1 100.15 29   Mostly Cloudy
20:00 22.2 17.1 72 6 11 24.1 100.18 28   LegendNANA
21:00 20.2 16.7 80 6 11 24.1 100.21 25   LegendNANA
22:00 18.9 16.3 85 4 12 24.1 100.21     Mostly Cloudy
23:00 18.6 16.0 85 4 11 24.1 100.20     LegendNANA

Notes on Data Quality.

Legend

  • E = Estimated
  • M = Missing
  • NA = Not Available*
  • [empty] = Indicates an unobserved value
Date modified: